Погода в Юсте

Погода в Юсте : погода сейчас, прогноз погоды и архив. Всё, что Вы хотите узнать о погоде в Юсте!

Хотите узнать прогноз погоды в Юсте? Тогда Вам сюда: Погода в Юсте

Поиск расширенной информации на нашем сайте:

Другие новости

Новости СМИ2

Главная страница сайта

Новости сайта

02.10.2013

Напоминаем, что на нашем новом сайте вы можете получить высокодетализированные прогнозы погоды по пунктам России, СНГ и мира (включающие важные для авиации метеовеличины, такие как направление и скорость ветра, видимость, явления погоды, количество и форма облачности, нижняя и верхняя граница облачности), а также ознакомиться с разнообразными материалами по авиационной метеорологии и подборкой полезных ссылок на эту тему.

Сайт Метеоцентр.Азия посвящён разработке технологий оптимизации авиаметеорологического обслуживания, включая проектирование и перспективное создание нескольких автоматизированных авиаметеорологических систем:
- система выпуска высокодетальных прогностических карт явлений погоды для нижнего воздушного пространства по России и ближнему зарубежью;
- система верификации прогнозов TAF (выпускаемых синоптиками официальных АМСГ РФ и ближнего зарубежья) и AUTOTAF (выпускаемых сайтом Метеоцентр.Азия) - выявление ошибок, онлайн-сопоставление с фактической погодой METAR, автоматическое внесение коррективов в прогнозы при резком отклонении фактической погоды от прогноза, подсчёт оправдываемости прогнозов по элементам и в целом;
- система обработки, анализа и отображения авиаметеорологической информации для применения провайдерами метеорологической информации.

Рекомендуем: Мебель для гостиной мебель в гостиную.

Погода в Юсте - сегодня

Время (UTC), дата Ветер
(°,м/с) 
Видим.   Явления Облачность Т
(°С)
Тd
(°С)
f(%) Тe
(°С)
Pmin
(гПа)
dP
(гПа)
Po
(мм)
O2
(г/м3)
Тmin Tmax R s Состояние
почвы
09 18.01.17 040 (СВ) 20000 м    9/9 300 м 
[Sc]
-5.5 -8.6 79 -8  1033.1  775  319           
12 18.01.17 040 (СВ) 20000 м    9/9 300 м 
[Sc]
-4.9 -7.6 81 -7  1033.2  -0.1  775  319           
15 18.01.17 040 (СВ) 10 км    9/0 средняя 
[Ac und]
-6 -7.8 87 -9  1033.6  0.4  775  320    -4.9       
18 18.01.17 040 (СВ) 10 км    4/0 средняя 
[Ac trans]
-6.8 -8.2 90 -8  1034.4  0.8  776  321           
21 18.01.17 050 (СВ) 10 км    9/0 средняя 
[Ac und]
-7.1 -8.7 88 -10  1034.2  -0.2  775  322           
00 19.01.17 030 (СВ) 10 км    9/0 средняя 
[Ac und]
-7 -8.3 90 -7  1034.1  -0.2  775  321           
03 19.01.17 020 (С) 10 км    10/0 средняя 
[As op]
-9 -10.7 87 -13  1034.5  0.4  776  324  -9      <0.5  мокрый или
старый снег
10-40% 
06 19.01.17 020 (С) 20000 м    9/0 средняя 
[Ac As]
-10.9 -12.7 87 -15  1035.9  1.4  777  327  -11.2         
09 19.01.17 030 (СВ) 20000 м    8/0 средняя 
[Ac und]
-7.5 -10.5 79 -11  1035.3  -0.6  776  323           
12 19.01.17 020 (С) 20000 м    9/0 средняя 
[Ac As]
-7.2 -10.2 79 -10  1034.7  -0.6  776  322           
15 19.01.17 340 (С) 10 км    9/0 средняя 
[Ac As]
-7.7 -10.4 81 -9  1034.9  0.2  776  323    -6.8       
18 19.01.17 тихо ()   10 км    9/0 средняя 
[Ac As]
-6.9 -9.9 79 -7  1034.7  -0.2  776  322           
21 19.01.17 тихо ()   10 км    9/0 средняя 
[Ac As]
-8 -10.6 82 -8  1033.7  -1.2  775  323           
00 20.01.17 тихо ()   10 км    9/0 средняя 
[Ac As]
-7.6 -10 83 -8  1032.8  -0.9  774  322           
03 20.01.17 260 (З) 10 км    9/0 средняя 
[Ac As]
-8.6 -9.9 90 -12  1031.4  -1.4  773  323  -8.7      <0.5  мокрый или
старый снег
10-40% 
06 20.01.17 230 (ЮЗ) 20000 м    9/9 300 м 
[Sc]
-9.7 -10.4 95 -14  1031.3  -0.1  773  324  -9.7         
09 20.01.17 230 (ЮЗ) 6{11}  20000 м    3/0 верхняя 
[Ci sp]
-6.5 -10.6 73 -11  1028.7  -2.6  771  319           
12 20.01.17 230 (ЮЗ) 6-11{11}  20000 м    4/0 верхняя 
[Ci sp]
-4.2 -9.2 68 -8  1025.5  -3.2  769  316           
15 20.01.17 230 (ЮЗ) 7-12{12}  10 км    8/0 средняя 
[Ac trans]
-7.2 -9.7 82 -13  1024.2  -1.3  768  319    -4.1       
18 20.01.17 240 (ЮЗ) 7-11{12}  10 км    9/0 средняя 
[Ac As]
-6.2 -8.3 85 -11  1023.1  -1.1  767  317           
21 20.01.17 260 (З) 6{11}  10 км    9/9 600 м 
[Sc]
-5.5 -8 83 -10  1022.3  -0.8  766  316           
00 21.01.17 260 (З) 6{10}  4000 м  слаб. снег  10/10 300 м 
[Cu med, cong]
-5.7 -7.2 89 -10  1021.3  -1  766  316           
03 21.01.17 260 (З) 10 км  {снег}  9/9 300 м 
[Sc]
-5.2 -5.7 96 -10  1020.2  -1.1  765  315  -7.4    0.3  <0.5  сухой снег
10-40% 
06 21.01.17 270 (З) 4000 м  дымка{снег}  10/10 300 м 
[St]
-4.3 -4.8 96 -8  1020.4  0.2  765  314           
09 21.01.17 270 (З) 20000 м    10/10 300 м 
[St]
-2.8 -4.1 91 -7  1019.5  -0.9  764  312           
Время (UTC), дата Ветер
(°,м/с) 
Видим.   Явления Облачность Т
(°С)
Тd
(°С)
f(%) Тe
(°С)
Pmin
(гПа)
dP
(гПа)
Po
(мм)
O2
(г/м3)
Тmin Tmax R s Состояние
почвы

Для получения пояснительной информации подведите курсор к названию столбца.

ПОГОДА в Юсте - архив

Всё, что Вы хотите узнать о погоде в Юсте - удобно и подробно!

Выберите нужную дату (начиная с 1 января 2015* года) и нажмите кнопку "Найти".
Будут отображены архивные сводки погоды по пункту Юста, начиная с указанной даты.


Отображать данные в формате CSV (для использования в таблицах Excel)


Внимание! Наш архив погоды предназначен исключительно для личного некоммерческого использования в познавательных целях. Если Вам необходимы официальные справки о состоянии погоды (для производственных, юридических, коммерческих и т.п. целей), обращайтесь в органы Росгидромета.

*Примечание: данная дата относится к архиву по метеостанциям СССР (Россия, СНГ, Балтия).
Архив по метеостанциям Зарубежной Европы и Азии (кроме Китая) хранится 10 дней, по другим регионам земного шара (Китай, Африка, Америка, Австралия, Океания) - 1 день.

Юста - район местоположения метеостанции


Название, широта, долгота, высота метеостанции:
Юста 47.1°ш. 46.3°д. 2 м над ур. моря [Российская Федерация]

Дополнительная информация

В oтличие oт бoльшинства пoгoдных сайтoв мы публикуем пoдрoбную метеoинфoрмацию в детальнoм прoфессиoнальнoм фoрмате.

Характеристики температуры и влажнoсти вoздуха измеряются на высoте 2 м в тени вдали oт зданий и деревьев.
Скoрoсть ветра измеряется на высoте 10 м (на урoвне рoста челoвека скoрoсть ветра ниже в 1.5-2 раза). Если метеoстанция нахoдится в гoрoде или в лесу, тo скoрoсть ветра занижена на 2-4 м/с пo сравнению с oткрытым местoм. Скoрoсть ветра над акватoриями крупных рек и oзёр, а также на вершинах хoлмoв на 2-5 м/с выше, чем в oбычных услoвиях.
Атмoсфернoе давление в разных тoчках местнoсти мoжет значительнo oтличаться oт давления на метеoстанции, в зависимoсти oт услoвий рельефа (при пoдъёме на 10 м давление пoнижается примернo на 1 мм рт.ст.).